Wind_Speed
3 4 6 1 2 0 2 2 2 3 3 3 15 4 3 3 1 1 8 17 19 25 26 23 21 20 17 14 12 11 10 11 11 10 10 9 9 10 10 9 8 7 7 6 6 6 7 7 7
3 4 3 2 2 3 2 2 3 2 2 13 11 6 2 3 2 5 12 11 18 23 26 25 22 20 17 15 13 11 11 10 10 9 9 9 8 8 7 6 6 6 6 5 4 4 5 5 5
3 3 1 3 2 3 2 2 1 1 8 4 5 3 3 2 3 10 8 10 16 23 25 25 24 21 17 15 13 12 11 9 9 7 7 7 7 6 6 5 4 4 4 3 3 2 2 2 2
4 1 5 2 2 1 2 2 1 10 1 3 7 6 4 5 8 5 9 13 14 21 23 24 24 22 20 17 14 13 11 10 8 6 5 4 5 5 5 4 4 3 2 2 1 0 1 2 1
2 2 2 3 1 3 5 5 2 9 2 3 4 6 4 4 5 7 10 13 16 22 23 23 23 22 21 19 16 14 12 10 8 6 5 4 4 3 3 3 3 3 2 2 1 1 2 4 4
3 3 1 1 1 3 6 5 1 5 2 4 4 5 3 6 7 13 15 15 18 19 21 23 23 22 21 19 17 15 13 10 9 7 5 4 2 2 1 1 1 1 2 1 1 2 4 5 7
4 2 2 1 1 2 5 9 3 8 6 4 8 4 5 9 12 15 16 17 18 17 19 22 22 22 21 19 18 16 14 11 9 8 6 3 2 0 0 1 1 2 2 2 2 3 4 7 9
5 3 3 2 1 4 5 7 3 2 4 4 5 4 5 14 15 16 17 17 17 17 18 21 22 22 21 20 18 17 15 12 10 8 6 5 4 3 2 2 2 3 4 4 4 5 6 7 10
5 2 3 4 4 2 4 6 5 2 5 6 7 2 5 16 18 18 19 18 18 17 19 21 22 23 21 20 18 17 15 13 12 10 9 7 5 4 4 4 4 4 5 6 6 7 7 8 9
3 3 5 4 4 3 5 2 7 1 5 3 8 5 9 18 19 19 19 19 17 15 17 20 22 23 22 20 18 17 16 15 14 12 9 7 5 5 5 6 7 7 7 7 8 8 8 8 10
4 5 5 5 7 3 3 1 4 1 3 9 13 14 14 20 20 19 18 17 15 14 16 19 22 22 20 19 18 17 16 15 13 10 7 6 6 7 6 7 8 8 9 8 9 9 7 8 8
3 5 5 3 4 2 4 5 2 7 9 11 13 15 17 23 23 22 20 18 17 15 13 14 17 20 20 18 16 13 13 12 10 8 6 4 4 3 2 2 4 5 6 7 8 8 9 9 10
4 3 7 13 14 7 8 10 5 9 12 10 13 14 19 24 25 22 17 16 17 16 14 14 15 17 16 14 13 12 11 10 8 6 5 1 1 0 2 3 5 7 7 8 9 10 12 13 15
5 5 6 7 12 6 5 6 5 7 8 11 14 20 20 25 27 25 23 22 21 17 16 16 15 14 14 12 11 10 10 9 8 8 6 5 5 4 6 8 9 9 12 12 13 14 14 16 18
2 6 6 11 9 7 8 13 12 16 14 11 15 22 25 29 29 28 25 22 18 17 18 18 17 17 15 13 11 10 11 11 9 10 9 7 5 6 8 10 11 13 14 16 17 18 18 20 21
1 0 5 1 8 3 11 17 7 13 17 17 20 25 28 31 31 27 24 20 16 16 20 20 20 19 18 16 15 14 13 9 9 8 7 7 9 9 10 10 12 13 14 13 15 15 19 19 21
1 5 6 5 10 4 8 11 7 6 13 16 19 26 30 33 32 29 26 22 18 16 21 23 23 23 20 19 16 15 13 10 9 9 8 9 7 7 7 7 7 9 11 13 14 14 17 19 21
6 5 5 11 4 5 6 13 12 6 7 15 17 23 28 34 35 31 26 23 20 19 22 25 25 25 24 20 19 15 10 10 9 10 9 7 5 4 4 6 8 11 13 15 17 19 20 20 23
5 5 6 4 2 2 9 12 18 13 13 17 19 24 32 34 33 30 27 25 21 22 25 27 27 27 25 23 20 18 15 15 14 11 8 5 2 3 7 9 11 13 15 17 20 21 21 22 25
12 12 14 16 10 9 13 13 17 15 12 21 21 25 30 26 34 32 29 25 22 22 24 25 29 26 25 22 21 15 17 17 13 9 4 1 5 8 11 13 15 16 17 19 20 21 23 24 25
17 20 15 15 6 6 10 12 14 12 18 19 21 23 22 32 32 35 32 28 25 23 23 27 31 28 28 25 24 21 20 17 11 6 2 4 6 9 11 14 15 15 15 16 16 17 17 18 18
20 13 13 10 6 12 3 10 14 9 10 8 16 20 24 29 37 38 35 32 29 25 24 26 31 32 30 26 23 21 21 16 10 5 4 5 8 10 10 12 13 15 16 16 15 15 15 17 19
12 8 12 8 9 8 12 9 5 10 17 16 16 23 26 31 40 44 41 36 30 26 29 31 33 32 29 26 23 22 18 12 7 3 3 5 7 9 11 12 12 14 15 14 15 16 15 15 17
7 4 3 3 1 13 14 13 15 12 17 13 19 22 26 31 36 43 41 35 32 31 33 35 35 32 29 26 21 16 13 8 4 1 2 3 6 8 9 10 12 11 11 12 11 12 13 14 15
14 11 4 5 6 14 13 15 19 10 12 17 16 24 28 31 36 43 45 42 41 41 40 37 36 34 29 24 20 14 8 3 1 2 3 5 6 7 10 11 11 11 13 14 15 16 17 17 18
19 14 6 10 8 12 6 11 7 16 22 23 21 24 25 30 36 47 49 46 46 44 42 39 37 34 28 22 17 12 7 2 2 3 5 6 9 11 11 13 15 17 18 19 19 20 22 22 24
7 13 17 6 7 7 7 9 6 6 10 10 16 16 25 30 33 41 47 49 47 45 42 39 35 30 26 20 14 10 5 2 1 2 4 6 9 11 14 17 19 20 21 22 23 24 25 25 25
13 12 6 7 7 13 12 14 10 8 12 13 13 21 24 26 29 34 44 49 46 44 40 36 32 29 23 18 14 9 4 3 2 2 6 9 12 15 17 18 19 20 22 23 23 23 24 25 25
9 14 8 6 8 11 17 12 10 16 16 14 15 19 22 27 32 37 44 49 47 43 40 36 32 28 23 18 13 9 6 5 4 6 10 12 13 16 18 19 21 22 24 25 26 27 27 27 27
25 23 25 10 11 6 10 23 7 9 8 10 14 18 19 23 28 32 38 51 47 44 41 38 33 27 22 18 14 11 8 6 6 9 11 13 16 18 20 21 22 23 24 25 24 24 23 23 24
Wind_Direction
14 332 341 78 172 17 126 152 285 205 169 148 153 162 173 82 190 336 148 158 168 176 176 177 172 163 163 159 152 141 129 124 119 112 107 108 115 121 124 120 114 111 107 101 102 97 82 68 64
27 348 339 78 99 136 131 251 216 231 96 122 121 116 102 91 88 133 140 157 165 175 174 176 175 171 170 168 159 152 141 134 124 120 114 109 112 117 120 117 117 114 111 108 108 99 87 77 62
19 351 35 78 97 106 138 194 216 117 130 143 112 94 103 70 111 137 164 160 168 173 175 175 175 176 176 175 166 162 154 150 143 135 117 107 104 107 114 116 112 109 110 109 105 95 102 87 48
355 323 55 80 71 207 268 353 175 154 128 144 122 109 112 124 144 177 179 175 172 177 177 176 175 177 179 179 177 173 171 171 166 155 133 118 105 104 114 124 120 115 106 110 95 239 273 297 327
29 39 64 88 310 281 272 289 196 172 32 140 154 149 127 139 160 165 159 170 177 178 179 178 177 178 181 182 186 183 187 186 183 179 164 148 133 118 113 123 133 135 149 166 181 269 287 290 294
73 77 73 133 342 310 301 313 197 165 194 188 134 123 111 131 131 140 142 153 166 176 179 182 180 182 182 184 190 193 199 198 198 199 196 179 159 119 110 129 166 177 190 217 231 265 292 290 290
104 77 133 242 343 50 6 334 220 173 174 207 150 114 143 149 141 144 146 148 160 177 183 186 186 186 186 190 194 199 206 208 212 213 213 207 210 190 66 346 301 270 262 256 263 273 279 285 290
112 109 139 254 142 112 341 358 316 184 178 157 163 163 171 177 157 157 155 154 162 176 186 191 192 192 191 193 197 201 206 209 212 220 226 231 241 261 289 312 305 289 281 283 287 291 295 289 295
128 110 200 191 198 102 338 6 15 300 157 164 192 187 181 175 169 170 168 168 171 177 187 193 198 197 196 197 200 201 206 211 217 219 222 230 240 262 289 299 304 307 307 302 297 299 304 296 293
137 178 217 186 184 325 321 338 320 223 132 203 196 196 176 181 181 181 183 179 176 177 182 193 199 201 200 201 204 203 206 212 216 217 222 233 249 262 274 298 311 315 309 307 308 311 312 318 303
178 192 195 218 218 257 295 346 329 278 240 206 205 202 184 187 191 191 193 190 180 178 183 191 197 200 204 207 209 210 211 215 218 224 232 248 264 274 291 308 309 307 306 309 309 313 311 312 321
236 242 202 196 208 223 286 302 322 209 241 268 245 221 203 198 199 199 194 194 191 189 191 190 194 202 205 210 215 218 219 220 222 224 231 263 305 294 283 36 11 1 343 332 329 324 320 316 314
221 233 224 249 274 262 273 265 266 259 278 260 243 224 216 209 205 205 201 202 203 202 200 196 197 198 205 209 214 217 219 217 215 224 181 177 2 252 258 303 323 323 321 315 311 308 308 311 309
194 216 254 262 254 240 232 249 208 243 273 253 240 229 217 211 208 207 206 208 213 209 209 204 195 188 188 189 197 208 208 203 187 190 231 250 255 290 287 281 285 292 290 294 296 296 294 292 292
254 286 284 233 228 234 207 256 226 239 242 246 234 223 215 214 210 214 214 217 226 225 218 205 191 181 178 177 185 182 172 172 200 222 223 245 249 268 279 281 280 280 283 282 287 288 291 289 289
273 38 289 61 167 210 185 260 266 240 217 226 226 223 220 215 214 213 215 222 221 222 218 202 190 182 177 170 159 156 161 182 203 207 214 240 262 265 269 278 284 285 283 292 299 298 296 300 302
268 233 239 283 210 137 210 267 273 259 213 230 218 216 220 217 215 215 218 217 215 219 213 199 190 186 182 174 166 166 167 194 212 225 233 244 243 250 263 278 300 313 315 313 316 316 309 305 299
204 219 233 250 177 186 190 251 265 251 223 238 230 226 223 218 216 215 213 210 209 209 209 201 198 191 188 181 181 184 193 196 208 208 208 204 221 238 276 299 303 306 309 310 307 307 308 309 308
186 208 251 290 228 221 249 253 267 259 234 246 239 234 228 223 215 212 211 208 206 200 206 204 203 192 188 181 180 185 194 186 186 180 181 181 218 325 337 332 328 325 322 320 319 316 315 317 320
227 239 238 280 262 233 272 261 272 261 245 238 236 236 226 211 213 210 212 211 212 208 205 203 201 198 197 190 187 203 200 174 177 169 168 351 340 328 324 326 326 324 324 321 316 316 318 318 320
225 231 235 249 289 240 273 266 264 266 248 241 238 241 221 210 205 207 209 210 213 213 201 198 192 197 192 189 186 184 180 175 169 167 231 300 314 325 329 327 327 326 323 321 322 323 325 330 332
233 215 227 247 267 274 182 284 265 262 248 232 221 209 208 203 209 210 209 209 209 205 191 190 193 192 191 188 188 195 183 179 182 205 262 312 324 328 331 330 327 328 329 328 327 328 327 329 335
240 184 199 230 246 276 238 275 212 239 252 234 229 211 207 208 209 208 207 207 202 194 187 189 190 188 182 181 184 180 180 184 192 221 307 323 327 331 333 333 333 335 338 336 334 333 329 330 330
180 188 83 86 233 255 225 228 254 236 237 248 235 228 208 202 205 207 203 199 194 190 187 186 181 176 175 175 172 176 178 175 163 81 342 340 337 334 334 335 332 331 330 331 323 322 322 321 321
182 158 224 246 211 256 196 220 251 238 225 232 234 224 211 202 195 195 194 190 186 182 183 182 181 176 173 174 174 173 173 158 72 358 344 336 328 321 316 313 309 306 310 309 305 302 300 299 298
190 187 192 221 235 265 188 237 246 221 227 230 238 233 206 198 196 197 193 188 185 182 181 181 180 179 176 178 176 176 182 206 308 336 329 321 314 314 306 305 307 305 305 303 298 296 296 297 297
168 205 219 266 242 281 231 247 270 226 226 220 223 203 201 200 198 193 191 191 186 183 181 181 181 182 179 178 179 184 189 214 238 305 312 307 305 299 300 300 300 302 301 300 301 303 303 301 301
174 154 143 212 244 252 233 246 228 202 222 227 215 207 204 198 192 188 192 191 187 184 181 182 185 185 178 180 182 178 177 192 213 287 300 293 289 294 298 300 300 301 301 301 301 299 299 298 297
173 195 199 197 214 250 268 256 192 206 214 223 218 213 200 194 192 188 190 190 186 183 183 183 184 183 182 182 180 183 189 190 233 277 286 288 298 300 300 299 302 304 303 302 300 298 297 295 297
201 202 201 200 210 238 258 257 174 199 181 194 211 201 200 197 188 186 186 188 185 184 184 185 183 183 185 184 185 188 191 214 257 277 286 298 302 303 303 304 305 306 307 305 303 302 303 305 306
Height
1521 1521 1520 1520 1525 1525 1528 1525 1525 1520 1520 1521 1522 1523 1523 1526 1526 1533 1527 1530 1533 1536 1539 1542 1545 1548 1552 1554 1556 1557 1559 1560 1561 1563 1564 1565 1565 1566 1566 1567 1568 1568 1568 1568 1569 1569 1569 1569 1569
1520 1520 1520 1520 1524 1525 1525 1524 1521 1518 1520 1521 1523 1523 1524 1526 1527 1528 1530 1531 1534 1537 1539 1543 1546 1549 1552 1554 1557 1559 1560 1562 1563 1564 1565 1566 1566 1567 1567 1568 1569 1569 1569 1569 1569 1569 1569 1570 1570
1520 1520 1521 1523 1532 1527 1523 1522 1520 1519 1520 1521 1523 1524 1526 1527 1527 1529 1530 1532 1534 1537 1541 1544 1547 1550 1552 1554 1557 1559 1561 1563 1564 1565 1566 1566 1567 1567 1568 1569 1569 1570 1570 1570 1570 1570 1570 1571 1571
1520 1521 1523 1523 1527 1525 1522 1519 1520 1520 1521 1521 1523 1525 1527 1527 1528 1529 1530 1532 1534 1537 1541 1544 1547 1550 1552 1555 1557 1560 1561 1563 1564 1565 1566 1567 1567 1567 1568 1569 1570 1570 1571 1571 1570 1570 1570 1571 1571
1520 1521 1523 1526 1528 1525 1521 1520 1520 1520 1521 1521 1522 1525 1527 1527 1527 1528 1530 1532 1534 1537 1540 1544 1547 1550 1552 1555 1557 1559 1561 1563 1565 1566 1566 1567 1567 1568 1568 1569 1570 1570 1571 1571 1571 1571 1571 1571 1571
1521 1523 1526 1526 1527 1524 1521 1520 1520 1520 1521 1522 1523 1524 1527 1527 1528 1528 1529 1532 1534 1538 1541 1544 1546 1549 1552 1554 1557 1559 1561 1563 1564 1565 1566 1567 1568 1568 1569 1569 1570 1570 1571 1571 1572 1572 1571 1570 1571
1520 1524 1529 1530 1529 1525 1521 1518 1519 1518 1521 1521 1521 1523 1527 1528 1528 1530 1531 1532 1535 1538 1540 1543 1545 1547 1550 1553 1555 1558 1560 1562 1563 1565 1566 1567 1568 1568 1568 1569 1569 1570 1570 1571 1571 1571 1571 1570 1569
1520 1523 1531 1530 1525 1526 1522 1519 1517 1517 1518 1520 1521 1521 1525 1526 1528 1530 1532 1532 1534 1536 1539 1542 1544 1547 1549 1552 1554 1557 1559 1561 1562 1563 1565 1566 1566 1567 1567 1568 1568 1569 1569 1570 1570 1570 1571 1570 1569
1519 1523 1524 1527 1526 1521 1522 1519 1518 1518 1519 1519 1520 1521 1522 1524 1526 1528 1530 1531 1533 1534 1537 1539 1543 1545 1548 1550 1553 1555 1558 1560 1561 1562 1563 1564 1565 1566 1566 1567 1567 1567 1568 1568 1569 1569 1570 1569 1569
1518 1522 1520 1520 1519 1520 1521 1521 1518 1518 1519 1520 1519 1520 1521 1524 1525 1526 1528 1530 1531 1533 1535 1537 1540 1544 1546 1549 1551 1553 1556 1558 1559 1561 1562 1563 1564 1564 1565 1566 1566 1566 1566 1566 1567 1567 1567 1568 1567
1518 1516 1516 1517 1518 1518 1518 1519 1518 1517 1517 1517 1516 1518 1519 1522 1524 1525 1527 1530 1531 1532 1533 1535 1538 1541 1545 1547 1549 1552 1554 1556 1558 1560 1562 1562 1563 1563 1564 1565 1565 1565 1565 1565 1565 1565 1565 1566 1565
1518 1516 1514 1513 1514 1516 1516 1516 1517 1517 1515 1514 1515 1516 1517 1518 1520 1522 1524 1527 1529 1531 1533 1535 1537 1540 1543 1546 1548 1551 1554 1555 1557 1558 1560 1561 1561 1562 1563 1563 1563 1563 1563 1563 1563 1564 1564 1563 1563
1515 1514 1514 1512 1511 1512 1513 1514 1514 1512 1512 1513 1513 1513 1514 1516 1518 1521 1524 1527 1528 1530 1532 1534 1536 1538 1542 1545 1547 1549 1551 1554 1556 1557 1558 1559 1560 1561 1561 1562 1562 1562 1561 1562 1561 1561 1561 1561 1561
1511 1511 1511 1511 1510 1510 1510 1510 1510 1507 1507 1509 1510 1510 1511 1513 1514 1518 1520 1522 1525 1528 1531 1533 1535 1537 1540 1543 1545 1547 1550 1551 1553 1555 1556 1557 1558 1559 1559 1559 1559 1559 1559 1558 1558 1558 1557 1556 1555
1510 1510 1508 1505 1506 1507 1508 1505 1501 1503 1504 1505 1507 1508 1509 1509 1511 1514 1517 1519 1523 1526 1528 1530 1533 1536 1539 1541 1544 1545 1547 1550 1552 1552 1553 1555 1555 1556 1556 1556 1556 1556 1555 1554 1554 1553 1552 1551 1550
1510 1511 1509 1501 1502 1503 1505 1499 1496 1498 1500 1501 1502 1504 1505 1506 1508 1511 1515 1517 1520 1522 1525 1528 1531 1534 1536 1539 1541 1543 1546 1548 1549 1550 1551 1552 1553 1554 1553 1553 1552 1551 1551 1551 1550 1550 1549 1547 1546
1513 1509 1510 1503 1499 1500 1501 1496 1495 1495 1497 1497 1497 1499 1501 1503 1505 1507 1510 1514 1516 1518 1521 1525 1530 1531 1534 1536 1538 1541 1543 1546 1547 1548 1549 1550 1550 1550 1550 1550 1550 1549 1549 1549 1548 1546 1545 1544 1542
1512 1510 1508 1501 1499 1498 1500 1495 1494 1496 1498 1494 1494 1496 1497 1498 1500 1503 1506 1509 1512 1515 1518 1523 1525 1527 1529 1533 1536 1539 1541 1543 1545 1546 1547 1548 1548 1549 1549 1549 1548 1548 1547 1546 1544 1543 1541 1540 1537
1502 1505 1503 1498 1497 1495 1493 1493 1486 1490 1492 1492 1491 1491 1490 1494 1496 1499 1501 1504 1508 1511 1514 1518 1520 1523 1526 1529 1531 1537 1538 1541 1542 1544 1545 1546 1547 1547 1547 1546 1545 1544 1543 1541 1540 1539 1538 1537 1534
1499 1502 1498 1492 1495 1496 1489 1490 1483 1482 1482 1482 1483 1482 1483 1489 1492 1494 1496 1499 1503 1507 1509 1514 1518 1522 1524 1527 1529 1533 1536 1538 1541 1543 1544 1544 1544 1544 1544 1543 1542 1541 1540 1538 1537 1535 1534 1532 1530
1496 1494 1495 1493 1493 1494 1492 1484 1476 1470 1471 1473 1473 1472 1477 1479 1486 1489 1491 1495 1498 1502 1504 1509 1514 1518 1521 1524 1527 1529 1533 1537 1540 1541 1542 1542 1542 1542 1541 1540 1540 1539 1537 1535 1534 1532 1530 1528 1527
1489 1487 1491 1494 1499 1496 1491 1479 1471 1466 1465 1468 1464 1464 1466 1472 1479 1484 1487 1490 1493 1497 1502 1506 1511 1514 1518 1522 1525 1527 1530 1534 1537 1538 1539 1540 1540 1539 1538 1537 1537 1536 1534 1533 1531 1529 1528 1526 1524
1477 1484 1489 1492 1495 1498 1488 1491 1461 1462 1461 1458 1458 1456 1458 1462 1468 1474 1480 1485 1489 1495 1499 1504 1508 1513 1516 1520 1524 1526 1529 1531 1533 1535 1536 1536 1536 1536 1535 1535 1534 1533 1533 1531 1529 1528 1526 1524 1523
1478 1485 1491 1494 1498 1491 1479 1483 1444 1453 1451 1450 1452 1453 1453 1454 1461 1469 1475 1481 1486 1491 1497 1501 1504 1509 1513 1518 1522 1525 1527 1528 1530 1531 1532 1533 1533 1533 1533 1532 1532 1532 1531 1529 1527 1526 1524 1522 1519
1475 1484 1497 1495 1501 1465 1455 1469 1439 1439 1441 1441 1441 1444 1447 1450 1454 1460 1467 1473 1479 1484 1490 1497 1501 1505 1510 1514 1516 1520 1523 1526 1527 1527 1528 1529 1529 1530 1529 1529 1529 1528 1526 1524 1523 1521 1520 1517 1515
1464 1472 1489 1484 1473 1445 1457 1445 1429 1426 1430 1433 1434 1434 1439 1445 1448 1452 1459 1467 1473 1479 1485 1492 1497 1501 1506 1509 1512 1515 1518 1521 1522 1523 1524 1526 1527 1527 1526 1525 1524 1523 1522 1521 1518 1516 1514 1512 1510
1465 1469 1455 1474 1469 1469 1441 1430 1428 1428 1429 1429 1428 1432 1432 1438 1443 1448 1455 1462 1469 1475 1482 1488 1495 1500 1503 1507 1510 1513 1514 1516 1518 1519 1521 1523 1523 1523 1522 1520 1520 1518 1516 1514 1511 1510 1509 1506 1503
1441 1449 1472 1473 1475 1461 1421 1425 1419 1428 1423 1422 1422 1422 1426 1433 1440 1447 1452 1459 1467 1474 1481 1487 1493 1497 1501 1505 1507 1510 1513 1514 1515 1517 1517 1518 1518 1517 1516 1515 1513 1511 1510 1509 1506 1503 1501 1498 1497
1439 1442 1443 1447 1453 1437 1421 1401 1399 1405 1409 1411 1414 1419 1423 1428 1433 1439 1446 1455 1464 1472 1478 1483 1488 1493 1498 1501 1505 1507 1509 1511 1512 1513 1514 1514 1512 1511 1510 1508 1506 1504 1503 1501 1499 1496 1493 1491 1488
1412 1416 1422 1437 1435 1439 1425 1381 1395 1398 1403 1406 1409 1414 1420 1426 1431 1437 1444 1452 1460 1467 1473 1478 1484 1490 1495 1498 1501 1503 1506 1507 1508 1509 1509 1507 1507 1505 1504 1502 1499 1497 1495 1494 1491 1488 1486 1484 1480